This is the latest recevied weather packets stored in our database for station/object OE9FWV. If no packets are shown the sender has not sent any weather packets the latest 10 day(s).
| Time | Temp. | Humidity | Pressure | Rain* | Wind** | Luminosity | Snow |
|---|---|---|---|---|---|---|---|
| 1777827406 | 23.33° C | 44% | 1011.1 hPa | 0 mm | - | - | - |
| 1777826797 | 23.33° C | 43% | 1011.1 hPa | 0 mm | - | - | - |
| 1777826197 | 23.33° C | 43% | 1011.1 hPa | 0 mm | - | - | - |
| 1777825597 | 24.44° C | 42% | 1011 hPa | 0 mm | - | - | - |
| 1777824386 | 25.56° C | 40% | 1010.7 hPa | 0 mm | - | - | - |
| 1777823779 | 25.56° C | 40% | 1010.8 hPa | 0 mm | - | - | - |
| 1777823178 | 25.56° C | 40% | 1010.7 hPa | 0 mm | - | - | - |
| 1777822576 | 25° C | 43% | 1010.7 hPa | 0 mm | - | - | - |
| 1777821973 | 24.44° C | 44% | 1010.7 hPa | 0 mm | - | - | - |
| 1777821373 | 24.44° C | 42% | 1010.8 hPa | 0 mm | - | - | - |
| 1777820773 | 24.44° C | 40% | 1010.7 hPa | 0 mm | - | - | - |
| 1777820170 | 24.44° C | 40% | 1010.8 hPa | 0 mm | - | - | - |
| 1777819562 | 24.44° C | 42% | 1010.9 hPa | 0 mm | - | - | - |
| 1777818355 | 24.44° C | 42% | 1011.1 hPa | 0 mm | - | - | - |
| 1777817151 | 25° C | 41% | 1011.2 hPa | 0 mm | - | - | - |
| 1777816544 | 25.56° C | 41% | 1011.2 hPa | 0 mm | - | - | - |
| 1777815941 | 25.56° C | 42% | 1011.3 hPa | 0 mm | - | - | - |
| 1777815337 | 26.11° C | 41% | 1011.3 hPa | 0 mm | - | - | - |
| 1777814733 | 26.11° C | 40% | 1011.4 hPa | 0 mm | - | - | - |
| 1777814123 | 25.56° C | 40% | 1011.5 hPa | 0 mm | - | - | - |
| 1777812919 | 25.56° C | 41% | 1011.8 hPa | 0 mm | - | - | - |
| 1777812318 | 25° C | 39% | 1012 hPa | 0 mm | - | - | - |
| 1777811112 | 25.56° C | 38% | 1012 hPa | 0 mm | - | - | - |
| 1777809299 | 24.44° C | 41% | 1012.2 hPa | 0 mm | - | - | - |
| 1777808700 | 24.44° C | 40% | 1012.3 hPa | 0 mm | - | - | - |
* Rain latest hour (hover to see other rain measurements)
** Current wind speed in m/s (hover to see current wind gust speed)